Flag for U.S.A. Weather past 2 weeks in Omaha, Nebraska, U.S.A.

Now
64 °F

Mostly cloudy.


Feels Like: 64 °F
Forecast: 56 / 72 °F
Wind: 7 mph from South

Location: Millard Airport

Current Time: Oct 23, 2014 at 1:01:09 AM

Latest Report: Oct 23, 2014 at 12:15 AM


Visibility: 10 mi

Pressure: 30.03 "Hg

Humidity: 89%

Dew point: 60 °F

Location of OmahaLocation

Historic Weather in Omaha — Graph

°F

Omaha temperature yesterday

Maximum temperature yesterday: 76 °F (at 3:15 PM)
Minimum temperature yesterday: 52 °F (at 5:15 AM)
Average temperature yesterday: 63 °F

Past Weeks' High & Low Weather Summary

 TemperatureHumidityPressure
High77 °F (Oct 16, 3:15 PM)97% (Oct 11, 3:15 AM)30.29 "Hg (Oct 11, 3:15 AM)
Low34 °F (Oct 11, 7:35 AM)27% (Oct 16, 5:15 PM)29.69 "Hg (Oct 12, 4:15 PM)
Average55 °F68%30.01 "Hg
* Reported Oct 7 11:15 PM — Oct 22 11:55 PM, Omaha, Weather by CustomWeather, © 2014

Note: Actual official high and low records may vary slightly from our data, if they occured in-between our weather recording intervals... More about our weather records

Advertising

Omaha weather history for previous 24 hours

 ConditionsComfort  
Time TempWeatherWind HumidityBarometerVisibility
11:55 PM
Oct 22
63 °FOvercast.7 mph90%30.04 "Hg10 mi
11:35 PM63 °FOvercast.8 mph90%30.04 "Hg10 mi
11:15 PM64 °FOvercast.7 mph89%30.05 "Hg10 mi
10:55 PM64 °FPartly cloudy.3 mph89%30.05 "Hg10 mi
10:15 PM64 °FLight rain. Overcast.6 mph87%30.04 "Hg10 mi
9:55 PM64 °FRain. Overcast.9 mph87%30.04 "Hg7 mi
9:15 PM63 °FHeavy rain. Overcast.5 mph94%30.07 "Hg4 mi
8:55 PM64 °FRain. Overcast.6 mph93%30.07 "Hg5 mi
8:35 PM64 °FRain. Overcast.7 mph93%30.06 "Hg7 mi
8:15 PM64 °FRain. Overcast.3 mph93%30.06 "Hg7 mi
7:55 PM64 °FRain. Mostly cloudy.7 mph93%30.05 "Hg5 mi
7:35 PM64 °FRain. Overcast.9 mph91%30.05 "Hg7 mi
7:15 PM65 °FHeavy rain. Cloudy.12 mph88%30.05 "Hg7 mi
6:55 PM67 °FLight rain. Cloudy.13 mph79%30.03 "Hg10 mi
6:35 PM74 °FBroken clouds.5 mph54%30.01 "Hg10 mi
6:15 PM74 °FScattered clouds.10 mph55%29.98 "Hg10 mi
5:55 PM74 °FScattered clouds.9 mph52%29.98 "Hg10 mi
5:35 PM73 °FScattered clouds.8 mph58%29.98 "Hg10 mi
5:15 PM73 °FScattered clouds.12 mph57%29.98 "Hg10 mi
4:55 PM76 °FScattered clouds.12 mph48%29.98 "Hg10 mi
4:15 PM75 °FScattered clouds.16 mph51%29.98 "Hg10 mi
3:55 PM75 °FSunny.16 mph52%29.98 "Hg10 mi
3:15 PM76 °FSunny.18 mph49%29.99 "Hg10 mi
2:55 PM75 °FSunny.15 mph50%30.00 "Hg10 mi
2:35 PM76 °FSunny.17 mph49%30.01 "Hg10 mi
2:15 PM75 °FSunny.14 mph49%30.02 "Hg10 mi
1:55 PM74 °FSunny.15 mph50%30.03 "Hg10 mi
1:35 PM72 °FSunny.14 mph52%30.04 "Hg10 mi
1:15 PM71 °FSunny.10 mph53%30.05 "Hg10 mi
12:55 PM69 °FSunny.13 mph56%30.06 "Hg10 mi
12:35 PM69 °FSunny.12 mph55%30.07 "Hg10 mi
12:15 PM67 °FSunny.16 mph56%30.07 "Hg10 mi
11:55 AM66 °FSunny.16 mph59%30.07 "Hg10 mi
11:35 AM65 °FSunny.12 mph60%30.08 "Hg10 mi
11:15 AM64 °FSunny.14 mph61%30.09 "Hg10 mi
10:55 AM62 °FSunny.16 mph62%30.09 "Hg10 mi
10:30 AM61 °FSunny.14 mph63%30.10 "Hg10 mi
10:15 AM60 °FSunny.15 mph64%30.10 "Hg10 mi
9:15 AM57 °FSunny.12 mph68%30.10 "Hg10 mi
8:55 AM56 °FSunny.14 mph70%30.10 "Hg10 mi
8:35 AM54 °FClear.12 mph73%30.10 "Hg10 mi
8:15 AM54 °FPassing clouds.9 mph75%30.10 "Hg10 mi
7:55 AM54 °FPassing clouds.9 mph74%30.10 "Hg10 mi
7:35 AM53 °FPassing clouds.9 mph76%30.10 "Hg10 mi
7:15 AM53 °FClear.9 mph77%30.10 "Hg10 mi
6:55 AM54 °FClear.10 mph73%30.10 "Hg10 mi
6:15 AM54 °FClear.12 mph73%30.09 "Hg10 mi
5:55 AM54 °FPassing clouds.9 mph74%30.09 "Hg10 mi
5:35 AM53 °FPassing clouds.7 mph76%30.10 "Hg10 mi
5:15 AM52 °FPassing clouds.7 mph78%30.09 "Hg10 mi
4:55 AM53 °FClear.6 mph76%30.09 "Hg10 mi
4:35 AM53 °FClear.6 mph77%30.09 "Hg10 mi
4:15 AM53 °FClear.6 mph77%30.09 "Hg10 mi
3:55 AM53 °FClear.7 mph76%30.09 "Hg10 mi
3:35 AM54 °FClear.7 mph74%30.09 "Hg10 mi
3:15 AM54 °FClear.6 mph73%30.09 "Hg10 mi
2:55 AM55 °FClear.8 mph71%30.08 "Hg10 mi
2:35 AM56 °FClear.9 mph69%30.08 "Hg10 mi
2:15 AM57 °FPassing clouds.10 mph67%30.07 "Hg10 mi
1:55 AM58 °FOvercast.13 mph64%30.07 "Hg10 mi
1:35 AM58 °FOvercast.10 mph64%30.07 "Hg10 mi
1:15 AM58 °FOvercast.9 mph64%30.07 "Hg10 mi
Weather by CustomWeather, © 2014

See weather overviewHow to use our weather pages